Theta_e
315 318 321 322 324 325 327 329 328 327 322 315 316 318 318 321 321 320 319 319 322 320 319 319 321 323 324 322 321 326 328 327 330 332 338 343 340 341 342 342 343 341 342 340 338 338 336 336 336 337 338 340 340 340 339 339 339 339 338 337 337 337 337 337 337 336 333 329 329 331 330 326 323 319 314 322 332 332 331 330 330 329 330 330 332 334 333 333 333 331 329 325 323 325 326 324 319
316 322 325 324 325 326 331 330 326 322 316 314 316 319 318 321 321 321 321 321 322 320 320 319 320 322 322 321 319 325 330 329 331 336 339 339 340 341 340 342 342 342 343 340 338 337 336 336 336 337 339 340 340 340 339 339 339 339 339 338 337 337 336 336 336 335 333 330 329 328 327 324 321 317 314 324 332 331 331 330 330 329 330 331 332 333 333 333 332 329 327 325 323 323 325 323 320
316 321 326 325 326 327 331 328 323 317 314 314 315 319 321 321 322 323 322 321 321 320 321 320 321 321 320 323 320 323 331 331 330 334 337 338 340 339 340 341 341 342 342 341 340 339 336 336 337 337 338 340 340 339 339 340 339 339 339 338 337 336 336 336 335 334 333 330 328 326 323 322 321 317 316 326 331 331 330 329 330 329 330 331 332 332 333 333 331 329 327 326 325 325 325 322 322
316 321 326 326 330 329 330 328 323 316 313 314 314 319 322 322 324 322 320 320 321 321 321 320 322 321 321 324 322 324 332 332 331 333 336 337 338 339 339 340 341 342 342 342 343 341 336 336 337 336 338 340 340 339 339 340 339 339 338 337 336 336 336 336 335 334 333 330 327 325 323 321 318 316 316 325 331 331 330 329 330 331 331 331 332 332 332 331 330 329 328 327 326 326 323 321 323
318 323 324 325 332 329 327 325 321 318 314 316 316 319 321 322 323 320 319 320 320 321 320 321 323 321 321 323 323 327 332 332 332 333 336 337 337 338 339 340 342 342 342 343 343 342 337 336 337 335 336 339 340 339 340 340 339 338 336 336 336 335 335 335 334 333 333 330 327 325 323 321 316 314 314 322 329 330 330 329 330 332 331 331 332 332 332 330 328 328 327 326 325 324 322 321 323
322 325 325 324 330 326 324 321 317 317 317 320 318 319 321 321 322 320 319 320 320 320 320 320 321 320 322 323 326 330 330 332 334 336 338 337 337 338 339 341 342 342 342 342 343 342 338 336 337 335 334 338 340 339 340 339 339 338 335 335 335 334 334 335 334 334 333 330 329 326 324 322 316 313 314 320 327 329 329 329 329 330 330 330 331 332 332 330 329 327 326 325 324 323 320 320 324
324 326 327 327 328 325 326 321 317 319 318 321 320 318 320 320 322 320 319 319 318 319 318 320 319 319 324 324 327 331 331 333 336 337 338 337 336 337 339 340 342 342 342 342 342 342 339 336 336 335 334 337 339 339 340 340 339 337 334 333 334 334 333 334 334 334 333 331 330 327 325 322 318 313 312 318 325 328 329 329 328 328 328 328 329 330 330 329 328 327 326 325 324 322 319 320 324
324 327 329 328 329 325 325 322 319 321 319 319 321 319 319 320 321 319 320 318 318 318 317 319 318 319 320 321 328 330 332 335 336 336 337 336 336 337 338 340 341 342 342 342 342 342 339 335 336 335 335 336 339 339 339 339 338 337 334 331 332 334 334 334 335 334 333 332 330 327 326 323 319 315 312 315 322 327 329 328 328 328 328 328 327 327 327 326 326 326 326 325 323 321 320 321 324
322 327 328 326 328 324 321 321 319 320 319 319 320 319 319 319 319 318 319 318 318 318 317 319 318 319 318 322 328 328 333 335 334 334 335 335 335 336 338 339 340 342 342 342 342 342 338 335 336 335 335 336 338 339 339 339 338 338 335 328 330 333 333 334 334 334 333 333 331 328 327 324 320 315 314 315 319 325 328 328 328 328 328 327 327 326 325 325 325 325 325 324 323 321 321 322 324
323 326 326 325 325 320 317 318 320 321 320 320 318 319 319 318 319 319 318 318 318 318 319 319 318 318 317 323 327 328 331 332 333 334 335 335 336 337 338 338 340 341 341 343 343 342 338 335 336 335 335 335 336 338 338 339 337 338 334 325 329 333 332 334 334 334 334 333 331 329 328 326 322 317 313 314 317 322 326 327 327 327 327 326 325 325 325 324 324 324 324 323 322 321 320 321 322
326 324 325 326 321 317 315 317 320 322 320 319 319 318 319 318 319 319 318 318 317 319 319 318 318 318 316 324 328 329 330 330 332 334 335 336 337 337 338 340 340 341 341 343 343 343 339 336 336 335 335 335 336 337 338 338 337 338 333 324 327 331 332 333 333 334 334 334 332 331 330 328 325 319 313 311 313 316 322 325 326 325 325 323 323 323 323 323 323 323 323 323 322 320 320 320 321
329 326 324 324 320 318 317 319 320 321 320 319 318 318 319 318 318 318 319 318 316 318 319 317 318 317 316 323 327 328 330 330 332 333 334 335 337 338 338 340 341 342 342 342 343 343 340 337 337 336 335 335 335 337 338 338 337 338 336 330 327 328 329 331 332 333 334 334 333 333 331 328 325 320 315 312 311 312 316 319 320 320 319 317 316 315 316 319 321 321 321 322 320 319 319 319 321
329 329 324 321 324 324 319 320 321 321 321 319 318 318 319 318 318 318 317 317 316 316 317 318 317 317 318 323 327 327 328 331 333 333 332 333 336 338 338 340 341 342 342 342 343 343 341 338 337 337 336 336 335 336 337 337 337 337 337 335 331 328 327 328 330 332 333 334 334 333 332 329 326 322 317 315 312 311 311 310 309 309 309 307 306 305 306 311 316 319 321 321 319 319 318 317 320
329 330 325 324 327 325 320 321 321 319 319 320 318 318 319 317 317 317 316 316 316 317 318 318 317 316 317 323 325 326 329 333 333 332 333 333 334 337 338 339 341 342 342 342 342 342 341 339 338 338 338 337 335 336 336 336 336 337 337 337 336 332 329 328 329 331 333 334 334 334 332 330 327 325 321 318 316 312 310 308 305 305 306 305 305 303 302 303 307 314 319 319 319 320 316 316 320
329 331 327 326 325 323 322 322 321 319 318 320 318 318 318 317 317 317 316 317 317 318 317 316 317 316 317 323 325 325 331 334 332 332 334 333 332 335 337 338 339 341 341 342 341 341 341 340 339 339 338 338 337 336 336 336 335 336 337 337 337 336 333 330 328 330 333 334 333 333 333 331 329 327 325 321 319 316 313 311 309 311 313 314 313 310 307 304 303 308 314 316 319 319 315 317 321
327 329 327 323 321 320 320 321 322 320 318 318 318 318 317 316 317 316 316 316 317 318 316 317 318 316 318 327 330 330 333 332 331 331 333 332 332 333 334 336 338 339 340 341 340 339 339 339 340 340 339 338 338 337 337 337 336 335 336 336 337 337 336 332 329 328 332 334 333 333 332 331 330 328 326 323 321 319 317 314 314 317 319 319 318 317 314 311 307 306 308 313 317 316 314 317 320
325 328 327 321 319 320 320 321 321 319 319 318 317 318 317 316 316 315 315 315 317 317 316 317 318 316 318 327 333 333 332 331 330 331 332 332 332 333 333 335 337 338 338 339 339 339 339 338 339 340 340 339 339 338 338 338 337 335 335 336 337 337 337 335 331 327 330 333 333 333 332 332 330 328 326 324 322 321 319 317 317 319 320 320 319 318 317 315 310 306 306 311 314 312 312 316 318
324 326 323 320 320 321 321 321 320 320 319 317 317 318 317 317 316 315 315 315 316 316 316 316 317 317 317 326 333 332 330 329 330 332 331 332 332 333 334 335 336 337 337 338 338 339 338 339 339 339 340 340 340 340 339 339 339 336 335 335 336 337 337 337 333 329 329 332 333 332 332 332 330 328 326 324 322 322 321 319 319 319 319 319 319 318 317 315 311 306 305 308 311 310 311 314 317
324 324 321 321 323 321 320 319 318 320 319 316 316 317 317 317 316 315 315 315 315 315 316 316 317 317 315 322 330 330 329 329 330 332 331 331 332 333 334 334 335 336 336 336 337 338 338 338 338 339 338 339 339 340 339 339 339 337 336 336 336 336 337 337 335 332 330 331 332 332 333 332 330 329 327 324 323 322 322 321 320 319 319 319 319 318 317 316 312 307 305 306 310 312 313 314 316
321 324 322 322 321 319 318 318 318 318 318 317 317 317 317 317 316 315 315 315 316 315 316 316 316 318 317 318 326 328 328 329 330 331 332 332 332 333 333 334 334 334 334 335 336 336 337 336 337 338 338 337 338 339 339 339 339 338 337 337 337 337 336 337 336 334 332 331 331 332 333 332 330 329 327 324 323 322 323 322 320 319 319 319 318 318 316 314 310 308 308 309 312 315 315 313 313
320 321 321 319 318 318 317 317 317 317 318 318 317 317 317 316 317 315 316 315 316 316 316 317 315 317 318 316 322 326 326 328 329 330 331 332 332 332 333 333 333 333 333 334 334 335 336 335 336 338 337 336 337 338 339 339 339 338 338 338 337 337 336 336 337 335 334 332 331 333 334 333 332 330 327 324 323 322 323 323 321 320 319 319 319 318 315 313 312 313 314 314 314 314 314 312 312
319 318 318 317 318 318 316 316 316 317 318 318 317 316 316 317 317 316 317 316 316 317 317 318 317 319 319 316 320 323 326 328 329 330 331 332 332 332 333 333 333 333 333 333 333 334 334 334 336 337 336 336 337 337 339 339 339 338 338 338 337 338 337 336 336 336 335 334 333 334 334 333 332 331 329 325 323 323 323 323 321 320 320 319 318 318 316 315 316 316 315 314 314 313 312 311 311
318 318 316 316 317 318 316 315 316 317 318 318 316 316 316 316 317 316 317 316 316 318 319 319 318 320 319 316 319 321 325 327 328 330 330 331 332 331 332 333 334 333 333 333 332 332 333 333 335 335 335 335 335 336 338 339 338 338 338 338 338 338 337 336 336 336 336 335 334 334 333 333 332 332 329 326 324 324 323 323 321 321 320 319 319 319 318 318 317 316 315 314 313 312 311 311 312
317 317 316 316 317 316 315 315 314 315 316 316 316 316 316 317 317 317 317 317 317 318 319 317 315 317 318 318 319 319 322 325 327 328 329 331 331 331 331 332 333 333 333 333 332 332 331 331 333 333 334 334 334 335 337 337 337 337 337 338 338 338 337 337 337 336 336 336 335 335 334 333 333 332 330 327 325 324 323 323 322 321 321 320 319 319 319 318 317 318 317 315 312 312 312 312 312
316 316 316 316 316 315 314 314 314 315 315 315 315 316 317 317 316 317 318 317 318 318 318 317 315 316 317 319 320 320 320 322 325 327 328 329 331 332 331 330 332 333 334 334 332 332 331 330 331 332 333 333 333 334 335 335 336 336 336 337 337 337 337 337 337 336 336 336 336 335 334 334 333 333 331 329 328 325 324 323 323 322 321 321 320 320 319 318 318 319 318 316 313 313 312 311 309
316 317 317 316 316 315 314 315 315 315 315 315 316 316 317 316 315 316 317 317 317 318 319 318 318 317 317 318 320 321 321 321 323 325 326 326 329 332 333 332 331 332 333 333 332 331 330 329 329 331 332 332 332 333 334 334 334 333 334 335 336 337 337 337 336 336 336 336 336 335 335 334 333 333 332 330 329 327 325 323 324 323 321 321 320 320 320 319 319 319 318 316 314 313 311 310 308
317 317 317 317 316 315 315 316 314 316 316 315 316 317 317 316 316 317 317 318 317 318 319 318 318 318 317 317 318 317 319 320 322 324 324 325 327 329 332 333 332 332 332 332 331 331 331 329 329 330 330 331 331 331 332 333 332 332 332 332 333 334 335 335 336 336 336 336 336 335 335 335 334 333 332 331 330 329 326 324 324 323 321 320 320 320 320 319 320 319 317 316 313 312 310 309 308
317 317 317 317 317 316 316 316 315 316 316 315 315 317 317 316 317 317 318 320 319 318 319 318 318 319 318 318 317 316 316 318 321 323 323 324 325 326 329 331 332 332 332 331 331 330 331 329 329 329 330 330 330 330 330 331 331 331 332 331 331 332 332 333 334 334 335 336 336 335 335 335 333 333 332 332 331 330 328 326 325 324 322 320 320 321 320 319 320 318 317 315 313 311 309 307 306
317 317 317 317 317 317 317 316 317 316 316 316 316 317 318 317 319 318 318 320 318 318 318 318 318 318 319 319 319 319 317 316 319 321 323 324 325 325 326 329 331 332 331 331 330 330 330 329 328 328 329 329 330 329 329 329 330 330 331 331 331 331 330 330 332 333 333 334 335 335 335 334 333 333 332 332 331 331 330 328 326 325 324 322 321 321 320 320 319 317 316 315 311 310 308 305 304
317 317 317 318 317 317 317 317 318 317 316 317 316 318 319 318 318 318 319 320 318 318 319 319 319 319 320 320 320 321 319 316 317 319 321 324 325 325 325 327 330 329 329 329 329 330 330 328 328 327 327 328 328 328 328 328 329 329 330 330 331 331 330 328 331 335 334 333 333 334 335 333 333 333 332 331 331 331 330 329 328 326 325 323 322 321 320 320 318 317 316 313 309 308 306 304 303
318 317 318 320 317 317 318 318 318 317 316 317 316 317 318 317 319 320 320 319 318 319 319 319 319 319 320 321 322 322 320 317 317 318 319 322 324 325 324 325 326 327 326 326 327 329 329 328 327 326 326 326 326 326 326 327 327 328 329 329 330 331 330 328 330 335 335 334 334 334 335 333 332 332 332 331 331 330 330 329 329 328 325 323 322 322 321 319 317 316 315 312 307 305 305 303 302
318 317 318 319 318 318 320 318 318 318 316 317 317 317 318 317 319 320 319 318 318 318 319 319 319 319 320 322 322 322 321 317 317 318 318 320 322 323 323 322 322 323 324 323 324 325 326 326 325 325 324 325 324 324 325 325 325 325 326 328 329 330 330 328 329 333 334 334 334 335 334 334 332 331 331 331 331 330 330 329 329 328 326 324 322 321 321 319 317 315 313 312 308 304 303 302 300
319 318 317 319 318 318 319 318 317 318 317 317 317 318 318 318 319 319 318 319 318 318 319 318 319 320 320 322 321 322 321 319 318 318 318 319 319 320 321 321 321 321 322 322 322 323 323 323 322 322 322 322 322 322 322 322 322 321 322 326 328 329 330 328 328 332 333 332 334 335 334 333 332 331 331 331 331 329 329 328 328 328 326 324 322 321 320 319 318 316 310 308 309 305 301 300 298
319 319 317 319 319 317 317 317 318 318 317 317 318 318 317 317 318 318 319 319 319 320 319 319 320 321 322 323 323 322 321 322 321 318 317 319 318 318 319 320 321 321 321 321 320 321 321 321 320 320 319 319 319 319 319 319 318 317 320 325 328 328 328 327 327 330 332 331 332 333 333 333 332 331 330 330 330 329 328 328 328 327 325 323 322 320 318 317 316 316 311 305 307 306 302 299 298
318 319 317 317 318 316 316 317 318 317 317 317 318 317 317 317 317 318 318 319 320 320 320 320 320 320 321 322 323 322 321 322 320 317 317 318 318 318 318 319 320 320 321 320 320 320 320 320 319 319 318 318 318 318 318 317 316 319 322 325 326 326 327 327 326 326 328 330 330 331 332 331 330 329 330 330 330 329 328 327 327 326 325 323 321 318 316 315 313 313 310 304 302 303 302 300 298
316 318 317 316 316 316 316 317 316 317 317 317 318 317 316 317 317 318 318 319 320 319 320 320 320 320 320 320 320 320 321 321 319 317 318 318 318 318 318 318 319 319 320 320 320 320 319 319 319 318 318 317 318 319 318 318 319 322 324 324 324 325 325 325 324 323 324 326 328 329 329 329 328 327 328 329 329 329 328 327 326 325 324 323 321 318 316 315 313 312 308 303 300 299 299 300 299
315 317 318 317 316 315 317 318 316 316 317 316 317 317 316 317 317 318 318 319 320 319 319 319 320 321 320 320 320 319 320 319 318 318 319 318 317 318 317 317 317 319 319 319 320 320 319 319 319 318 318 318 318 319 319 318 320 322 322 322 323 323 322 322 322 321 321 323 326 327 328 329 328 327 327 328 328 328 327 326 326 325 323 322 320 319 317 316 315 313 307 302 301 299 297 297 298
315 317 318 318 318 318 317 318 316 315 317 317 317 316 315 316 316 318 319 318 318 318 318 319 318 319 321 322 322 321 319 319 323 323 319 318 318 317 317 317 317 317 318 318 319 319 319 318 318 318 317 318 318 318 318 317 318 319 319 320 320 319 319 320 321 321 320 322 324 326 327 327 327 327 327 327 327 327 327 326 325 324 322 320 318 316 316 315 312 309 304 300 300 301 298 297 298
317 318 318 319 321 319 317 317 316 315 317 317 316 316 315 315 316 316 317 317 317 317 317 318 319 319 321 322 322 322 321 324 332 330 321 318 318 317 317 316 316 316 317 317 318 318 319 319 318 318 317 317 318 318 317 316 315 317 317 318 317 316 317 318 320 320 321 323 324 325 326 326 326 326 326 326 326 326 326 326 325 324 322 319 317 315 314 312 309 307 305 302 300 299 298 297 299
320 320 318 320 322 319 316 316 317 316 316 317 318 318 317 316 318 317 317 317 316 316 318 319 322 322 322 323 323 323 324 326 331 331 324 318 317 317 316 316 316 316 316 316 317 318 318 318 318 318 317 317 318 317 317 315 314 314 316 317 317 317 316 317 319 320 321 323 324 324 325 325 325 325 325 325 326 325 325 326 325 323 321 319 318 316 313 311 310 308 306 303 302 300 295 294 298
321 323 320 320 321 320 318 318 319 317 317 320 321 321 322 321 321 322 320 319 317 317 319 321 324 326 326 327 326 326 328 328 328 330 327 319 316 316 315 315 315 315 316 316 316 317 317 317 317 317 317 317 317 317 316 315 314 314 316 317 317 316 315 316 317 320 321 321 322 323 323 324 324 324 324 324 325 325 324 325 325 323 321 319 318 317 316 314 313 311 307 304 305 306 299 294 295
318 324 324 321 319 321 323 322 321 318 317 321 322 322 324 322 320 321 319 320 320 320 322 323 324 326 327 328 327 328 329 329 328 328 328 320 315 316 315 315 315 314 315 315 315 316 316 316 317 317 317 316 316 316 315 314 313 315 316 316 315 314 313 314 317 319 320 321 321 321 321 322 322 322 323 323 324 324 325 325 324 323 321 319 319 317 316 314 313 311 308 305 305 310 306 298 295
314 323 328 324 322 324 323 321 321 318 317 321 321 321 321 316 314 316 315 315 317 318 322 324 323 323 326 327 327 328 329 329 330 328 328 323 316 314 315 314 314 314 313 314 315 315 316 316 316 316 316 316 315 315 314 314 314 315 316 315 315 314 313 313 315 317 319 320 320 319 319 320 320 321 321 322 323 323 324 324 323 322 321 320 319 317 315 313 314 311 308 305 304 308 309 302 297
319 326 328 324 323 325 323 321 321 320 321 324 323 321 322 319 316 316 316 315 316 316 318 321 322 322 324 328 330 331 331 333 336 333 329 325 317 313 315 314 313 314 313 314 315 315 315 316 316 316 316 315 315 314 314 313 314 314 314 314 314 314 313 313 313 314 316 318 318 318 319 319 318 319 320 320 321 321 322 323 322 320 320 320 318 317 316 314 314 311 306 305 304 305 309 307 300
324 326 326 325 325 325 323 321 322 323 323 325 326 323 322 322 320 320 321 318 317 318 319 321 321 321 323 328 333 334 333 333 334 332 329 323 317 314 315 314 313 313 313 313 314 315 315 315 315 315 315 315 314 313 313 313 313 313 313 313 313 313 313 313 313 313 314 316 317 318 318 318 317 318 319 319 319 319 319 322 321 319 319 320 318 317 317 314 312 310 306 304 304 304 307 308 302
325 325 325 326 327 325 324 322 322 323 321 322 329 325 318 316 315 318 322 319 318 320 320 322 323 326 330 333 334 333 332 329 326 326 325 319 316 316 315 314 314 313 313 313 314 315 315 315 315 315 315 315 314 313 313 313 313 312 312 312 312 313 313 313 313 313 314 316 317 318 318 318 317 317 318 317 317 317 317 319 320 318 318 319 319 318 316 313 310 308 307 304 304 304 304 305 302
325 326 325 324 324 324 324 323 322 323 320 321 329 326 316 313 314 318 321 320 321 320 318 321 326 331 335 336 335 332 331 330 326 323 320 314 313 315 314 314 313 313 313 314 314 315 315 315 314 314 314 314 313 313 312 312 312 311 311 311 312 313 313 314 313 312 313 315 316 316 317 317 317 317 317 316 316 315 315 317 317 316 316 316 317 317 314 312 310 307 307 305 304 304 303 302 301
325 324 323 322 323 323 323 323 325 323 320 322 327 325 318 314 315 319 321 319 320 320 317 321 327 332 337 337 333 330 330 330 325 323 319 315 314 313 312 313 313 313 314 314 315 315 314 314 314 314 314 313 312 312 311 311 311 310 310 311 312 313 314 314 313 312 312 314 314 314 315 316 316 315 315 315 315 314 314 315 314 312 313 313 315 314 312 312 310 308 307 306 305 305 303 301 300
326 323 321 322 322 324 325 326 329 326 320 322 325 323 319 315 314 318 319 316 318 319 320 324 325 328 334 337 335 333 332 329 326 324 321 319 317 312 310 312 312 312 314 314 314 314 314 314 314 313 313 312 312 311 311 310 310 310 310 310 311 312 313 313 312 312 312 313 314 314 314 315 314 313 313 314 314 312 313 315 313 311 312 312 313 313 311 310 310 309 308 307 306 305 303 301 301
324 322 323 323 320 321 324 325 328 327 323 322 322 322 322 319 316 318 317 317 319 320 321 325 326 326 329 332 334 337 336 332 329 326 324 322 318 311 309 311 311 312 313 314 314 314 314 314 313 313 312 312 311 310 310 309 309 309 309 310 311 312 313 312 312 312 312 313 314 314 316 316 316 315 315 316 316 315 315 316 314 313 312 311 311 311 310 309 309 309 308 307 306 304 302 301 301
321 320 321 323 319 318 320 320 324 327 325 321 319 322 325 322 319 319 318 319 322 322 323 325 327 330 328 327 331 335 335 334 332 328 328 326 316 310 310 310 310 312 313 313 313 313 314 313 313 313 312 311 311 310 309 309 308 308 309 309 310 312 313 312 312 312 312 313 314 315 316 317 317 318 319 319 319 319 318 316 313 313 313 311 309 309 309 308 308 308 307 307 305 303 302 301 300
319 319 319 322 321 315 316 319 321 322 322 321 323 326 326 321 317 316 316 317 318 317 321 325 326 326 325 327 333 333 331 335 334 329 330 327 315 311 312 310 310 311 312 313 313 313 313 313 313 312 312 311 311 310 309 308 308 308 308 309 310 311 312 312 311 311 311 312 314 314 314 315 317 318 319 319 319 319 318 316 313 311 311 310 308 308 308 308 307 306 306 305 304 303 302 301 300
319 321 321 323 322 316 317 321 321 318 318 320 322 322 319 315 314 315 315 315 315 314 317 321 323 324 324 328 333 330 328 337 337 332 333 329 318 313 312 311 311 311 311 313 312 312 313 312 312 312 311 311 310 310 309 308 307 307 307 308 309 310 311 311 311 311 311 312 313 313 312 313 315 315 315 317 317 316 314 312 311 311 310 308 307 307 306 306 306 305 305 304 303 302 301 300 299
323 324 321 320 322 320 318 319 321 321 319 317 316 315 315 312 313 317 318 316 316 316 317 317 319 323 326 328 329 326 328 336 338 333 333 328 317 313 313 312 311 311 311 312 312 312 312 312 312 311 311 311 310 310 309 308 307 306 306 307 308 309 310 310 310 310 311 311 312 311 311 311 313 312 311 312 312 311 308 306 308 310 308 306 305 304 304 304 304 304 304 304 303 302 301 300 299
323 324 321 320 323 324 321 317 318 320 318 318 318 316 315 314 312 315 316 316 317 318 319 319 318 322 326 328 328 329 334 337 335 331 331 328 318 313 313 312 311 311 311 311 311 312 312 312 311 311 311 310 310 309 309 308 307 306 305 306 307 309 309 310 310 310 310 311 311 311 311 311 311 310 309 309 310 309 307 306 307 308 306 304 302 301 301 301 301 302 302 302 301 301 300 299 298
319 320 320 322 323 323 323 319 317 318 317 317 318 317 317 315 313 314 315 316 317 317 318 321 321 323 327 327 329 338 343 339 336 335 334 331 320 313 312 312 311 311 311 311 311 311 312 311 311 311 310 310 309 309 309 308 308 306 305 305 306 307 308 309 309 309 309 310 310 311 311 310 309 309 308 308 308 308 307 306 307 306 304 302 300 299 298 299 299 300 300 300 300 299 299 299 297
318 319 321 323 321 321 324 322 319 319 318 317 317 317 316 313 313 315 316 317 318 318 320 323 324 325 325 326 332 345 346 339 339 338 335 329 318 311 312 311 310 310 310 311 311 311 311 311 311 310 310 309 309 309 309 308 307 306 305 305 305 306 307 308 308 309 309 309 310 310 311 310 308 307 307 307 307 307 307 307 307 305 302 301 299 298 297 298 298 298 299 299 299 298 298 298 296
317 317 318 320 320 321 322 321 320 320 320 319 319 319 317 315 316 316 315 316 318 322 325 324 324 323 322 330 340 341 337 335 337 334 331 326 316 310 310 310 309 310 309 310 311 311 311 311 310 310 309 309 309 309 308 308 307 306 305 305 305 305 306 306 307 307 308 308 309 309 310 309 307 306 306 307 306 306 305 305 304 303 300 299 299 298 297 297 298 298 298 297 297 297 296 295 294
Wind_Speed
5 4 5 6 5 7 6 4 1 2 2 2 4 3 2 3 3 4 5 4 3 3 3 4 4 4 3 2 3 7 7 6 3 1 2 6 11 13 14 17 18 17 16 14 15 14 12 12 13 12 11 10 11 10 11 11 11 12 12 12 12 12 12 12 12 12 12 11 11 12 13 14 15 15 17 19 19 18 18 19 19 18 18 18 17 17 17 18 17 17 18 18 18 18 19 20 23
4 3 5 6 6 5 3 2 1 3 3 4 4 4 3 2 1 4 7 6 4 3 4 5 5 5 3 3 1 4 7 7 6 4 6 12 13 13 16 15 17 17 15 14 15 14 13 13 13 13 11 11 11 11 11 11 11 12 12 12 11 11 11 12 12 12 11 11 11 11 13 14 15 15 16 18 19 18 17 18 18 18 18 17 17 17 17 17 17 17 18 19 18 19 19 21 26
4 2 3 6 6 3 2 1 2 4 2 5 4 2 4 4 4 8 8 8 6 5 5 3 4 3 1 2 2 2 4 6 9 7 8 14 11 12 16 13 15 16 14 14 13 13 14 14 14 13 12 11 11 11 11 11 12 12 11 11 11 11 10 11 11 11 11 11 11 11 13 14 14 15 17 18 18 18 17 18 18 18 18 17 17 17 17 17 17 17 18 19 19 20 19 22 26
3 1 1 4 3 2 2 1 3 4 3 4 3 3 4 6 8 9 7 7 6 4 4 3 2 2 2 2 3 2 5 4 9 9 6 10 13 15 15 14 14 14 14 14 13 13 13 14 13 12 12 11 11 11 11 11 11 11 11 10 10 10 10 10 10 11 11 11 11 12 13 14 14 15 17 18 18 18 17 18 18 18 17 17 17 16 16 16 16 17 18 18 19 19 20 22 26
1 1 3 3 1 1 1 2 2 3 4 2 4 3 4 8 9 8 6 5 4 3 2 2 2 1 1 2 3 1 3 3 8 12 10 11 17 19 15 15 14 13 14 14 14 13 13 14 13 12 12 11 11 11 11 11 11 10 10 10 10 10 10 10 10 10 10 11 11 12 13 13 14 14 16 18 18 18 17 18 18 17 17 17 17 17 17 17 16 16 17 18 18 18 20 24 27
3 2 5 3 1 1 1 2 1 5 3 3 4 3 6 9 8 8 7 6 5 4 2 2 2 1 2 3 4 4 2 4 8 10 11 14 18 18 16 17 14 13 14 14 14 13 13 14 13 12 12 12 11 11 11 11 11 10 10 10 10 10 10 9 10 10 10 10 10 11 12 13 13 14 15 17 18 18 18 17 17 16 16 17 17 17 17 17 16 16 17 17 18 18 21 25 27
4 2 3 2 2 0 2 3 3 5 3 5 4 4 7 8 8 8 7 5 4 3 2 2 2 1 2 2 5 5 5 7 8 8 13 16 18 15 14 16 14 14 14 14 13 12 14 14 14 13 13 13 11 11 11 11 11 10 10 10 10 10 10 10 10 10 10 10 10 11 12 13 13 13 15 16 17 17 17 17 17 17 16 16 16 16 16 16 17 17 17 17 18 18 22 26 26
3 2 1 1 2 1 3 1 5 4 2 4 5 4 8 9 7 7 6 4 3 3 2 2 2 2 1 1 2 3 7 10 11 11 15 16 17 15 14 15 14 14 14 14 13 12 15 15 15 14 14 14 12 11 11 11 10 10 9 10 11 11 11 10 10 10 10 10 10 11 11 12 13 13 14 15 16 17 17 17 17 17 16 16 16 16 17 17 18 18 18 18 18 19 23 26 25
2 2 0 1 2 2 2 2 5 3 3 3 4 4 7 7 6 6 5 5 4 4 5 4 3 2 2 2 3 5 8 11 14 13 13 13 15 16 15 14 12 14 14 14 12 12 15 16 15 15 15 14 13 11 10 10 10 9 8 9 12 12 11 11 10 10 10 10 10 10 11 12 12 12 13 14 16 17 18 17 17 17 16 16 17 17 17 18 18 18 18 18 18 19 23 24 24
3 2 0 1 2 3 3 3 4 4 5 4 4 4 5 5 5 6 6 5 5 4 5 5 4 1 1 4 3 4 9 12 14 14 12 13 13 15 15 13 11 13 13 13 12 12 15 17 16 16 15 14 13 12 11 10 9 8 7 9 13 13 12 11 11 10 10 10 10 10 11 12 12 12 12 13 14 16 17 17 17 16 16 16 17 17 17 17 18 18 18 18 18 20 23 23 23
1 2 1 1 3 4 2 4 4 4 5 4 5 5 4 4 3 4 6 6 5 5 5 3 3 2 1 4 2 5 14 14 14 15 13 13 12 13 13 10 12 13 13 13 12 11 14 17 16 16 15 15 14 13 11 10 9 9 7 9 12 13 12 11 11 11 10 10 10 10 10 11 11 11 11 12 13 15 16 16 16 15 16 16 17 17 17 17 17 18 18 18 17 20 21 20 22
1 3 2 1 5 1 2 3 5 5 5 4 4 4 3 4 3 3 5 6 5 5 5 4 2 0 2 2 2 8 15 13 14 16 14 16 13 12 11 9 12 11 10 13 12 10 13 17 16 16 15 14 14 14 12 11 10 9 9 9 11 13 12 12 12 11 11 10 10 10 10 11 11 11 11 12 13 14 15 15 15 15 15 16 16 16 16 17 17 18 18 17 18 20 21 21 23
1 2 2 3 5 1 2 2 4 4 4 5 5 5 4 4 4 4 4 4 5 5 4 4 3 2 1 3 4 8 10 12 16 16 15 16 13 13 11 10 13 10 10 13 12 11 12 16 16 15 15 14 14 14 13 12 11 10 10 10 11 11 11 11 12 12 11 10 10 10 10 11 11 11 11 12 13 13 14 14 15 15 15 15 15 15 16 16 17 18 17 18 19 21 22 23 25
1 2 1 3 3 2 2 2 2 2 2 4 7 6 5 3 4 3 4 5 4 3 2 3 4 2 1 3 4 4 8 15 17 16 15 14 14 15 11 11 13 10 10 12 11 13 12 14 16 15 15 15 15 14 13 13 12 11 11 11 11 11 11 11 12 12 11 11 11 11 11 11 11 10 10 11 12 13 13 14 14 15 15 15 15 15 16 16 17 18 18 19 20 21 22 24 25
1 3 1 2 2 2 1 2 0 0 2 4 6 7 5 1 0 2 2 3 2 1 2 3 3 2 1 2 3 5 12 18 17 17 15 13 15 14 10 12 15 10 10 11 10 12 13 13 14 14 16 16 15 15 14 13 13 13 12 12 11 11 12 11 12 13 12 12 12 12 11 10 10 9 9 10 11 12 12 13 14 15 15 15 15 15 16 16 17 18 19 20 20 21 22 24 24
1 2 1 2 2 1 1 2 1 1 2 4 5 6 6 2 1 2 1 1 3 1 1 2 2 1 3 3 5 12 18 18 17 18 16 14 13 12 10 11 14 11 10 11 9 11 13 15 15 14 15 16 16 15 14 14 14 14 13 13 12 12 12 12 12 14 14 13 13 12 11 11 10 10 9 10 10 11 12 12 14 14 14 15 15 16 16 17 17 18 19 19 19 21 23 23 23
0 1 0 2 3 2 3 3 3 2 3 4 6 6 6 4 0 1 1 0 3 3 1 3 3 3 5 7 12 18 19 17 17 18 16 15 13 11 11 10 13 12 12 13 11 10 13 15 16 15 15 15 16 15 15 14 15 15 14 13 13 13 13 13 13 14 14 13 13 12 12 12 11 11 10 10 11 11 11 12 14 14 14 14 15 16 17 18 18 19 19 19 19 20 22 22 22
1 1 1 3 4 2 2 3 3 4 6 5 6 7 6 6 4 2 2 1 2 3 4 5 6 7 10 14 17 18 18 17 18 18 16 16 15 13 12 14 15 14 15 16 14 11 12 15 15 16 16 16 16 16 16 14 14 15 15 14 14 14 13 14 14 14 15 14 13 13 13 13 13 13 12 12 12 12 12 12 13 14 14 14 15 16 17 18 19 20 20 19 19 19 20 20 21
2 1 3 3 1 2 3 5 5 3 4 6 6 7 5 6 7 4 3 4 5 4 4 5 6 7 10 14 16 17 17 18 18 17 17 17 16 15 15 16 17 17 17 18 19 16 14 15 16 17 17 17 17 17 17 15 15 16 16 15 15 15 15 15 15 15 16 15 14 14 13 14 14 14 13 13 13 13 12 12 13 14 15 15 16 17 18 19 19 21 21 21 20 19 17 17 18
1 0 2 2 2 3 7 8 7 5 3 5 7 3 2 4 6 4 3 5 6 7 5 6 7 7 9 11 15 17 16 17 17 16 16 17 16 17 17 18 20 20 19 19 20 18 17 18 18 17 18 19 18 18 19 17 16 16 17 17 16 16 16 16 16 17 17 16 16 15 14 15 16 15 15 15 15 15 13 12 13 14 15 16 17 18 19 20 21 21 20 20 19 16 15 15 16
0 1 1 3 3 3 6 7 6 5 5 2 6 2 1 3 4 4 4 3 4 6 6 7 8 11 12 11 14 17 16 16 17 16 16 17 17 17 18 19 21 21 19 18 19 20 20 20 20 18 18 20 19 19 19 18 18 17 17 18 18 17 17 17 18 19 19 18 18 16 15 15 17 18 17 17 16 16 16 14 14 15 16 17 17 19 21 22 21 20 18 17 16 15 15 15 17
0 1 3 4 4 3 4 5 6 5 4 2 6 2 0 3 2 3 5 4 3 2 2 2 1 5 13 14 13 15 14 15 16 17 17 18 19 18 18 19 19 19 18 19 21 22 22 21 21 21 19 19 19 19 18 18 18 17 17 18 19 18 18 18 19 20 19 19 20 18 17 16 19 19 18 19 18 18 17 16 17 16 17 18 18 20 22 21 18 16 16 17 16 16 16 16 17
0 1 4 5 5 3 3 3 4 6 4 2 2 0 2 3 1 4 6 6 3 5 6 7 7 7 16 17 13 13 11 13 16 19 21 20 21 21 19 19 21 22 21 21 22 22 23 22 22 23 21 20 20 18 16 17 17 17 17 18 20 20 18 19 19 21 20 20 22 21 20 19 19 21 20 20 20 19 19 18 18 18 18 20 20 20 20 16 15 14 14 16 16 17 17 17 17
1 1 4 3 4 4 3 3 1 4 4 3 2 3 1 2 2 1 5 8 5 4 8 8 8 11 15 14 11 11 12 14 18 21 23 22 23 23 21 20 20 22 23 22 22 22 24 24 23 24 24 23 21 20 18 17 17 17 16 16 19 21 19 19 19 21 20 21 23 22 21 20 20 21 22 22 21 21 20 19 19 19 19 20 21 20 17 15 15 14 13 14 17 17 18 18 17
3 1 4 2 3 4 4 4 2 2 2 2 3 4 3 2 1 3 5 7 6 4 7 8 8 9 10 10 10 10 11 14 17 19 21 22 21 22 22 20 18 20 23 23 22 22 24 25 26 25 25 23 22 22 21 19 18 18 18 17 18 19 20 19 19 21 21 21 23 22 21 23 22 22 23 24 23 22 22 21 20 20 21 22 22 18 16 17 16 14 14 16 18 19 19 18 18
1 3 5 3 4 4 3 4 3 1 0 1 2 5 3 3 2 4 9 8 8 6 6 7 7 7 6 8 10 10 9 12 16 18 21 22 20 20 22 23 20 21 24 24 23 22 22 25 27 27 26 24 23 22 23 22 19 18 20 21 19 19 19 19 19 21 23 23 23 23 23 24 23 22 24 25 24 23 24 23 22 22 23 23 22 19 18 19 17 17 18 18 19 20 19 19 19
1 4 5 4 5 4 1 2 4 1 0 1 3 5 2 3 1 5 6 5 7 7 6 7 7 7 7 7 8 9 10 13 18 19 18 19 20 21 22 24 23 22 22 24 24 23 22 24 26 27 27 25 24 23 23 24 22 19 19 20 21 22 21 19 19 21 24 24 23 23 23 23 23 24 24 25 24 24 26 26 25 25 25 24 22 21 21 20 19 19 19 20 21 21 20 19 19
1 5 6 4 4 4 2 3 4 2 0 1 3 5 5 2 2 8 5 0 4 7 6 6 6 6 7 7 7 8 9 14 19 19 17 20 22 24 24 26 27 24 23 24 26 25 23 24 26 26 26 25 25 25 23 24 23 22 21 20 21 22 23 22 21 22 23 24 23 22 23 24 25 25 23 23 25 25 27 28 28 28 28 26 25 25 23 22 22 21 20 20 21 22 21 20 19
2 3 3 5 4 3 5 4 4 3 1 1 1 4 8 5 8 14 7 5 4 6 6 6 6 6 6 7 7 7 9 13 16 18 20 23 25 26 26 28 29 27 25 24 24 26 26 25 25 26 25 25 27 27 26 26 25 23 22 22 23 22 22 23 23 23 24 24 24 23 24 25 25 25 24 24 24 25 27 29 30 30 29 29 28 26 24 25 25 24 23 22 22 23 22 21 20
2 3 1 4 3 3 7 6 4 3 1 1 1 2 7 6 11 12 7 8 6 6 6 6 6 6 6 7 6 6 9 11 14 18 22 23 24 26 26 26 28 28 27 25 25 26 27 26 26 26 26 26 27 28 28 28 28 26 23 22 24 24 22 22 24 24 25 26 26 26 26 24 24 24 25 25 25 25 26 29 31 30 30 30 29 27 26 27 28 26 26 25 24 24 24 22 21
1 2 1 2 2 2 5 5 5 4 1 2 2 1 7 7 5 1 5 8 7 6 7 7 6 6 7 7 7 6 8 12 16 19 21 23 23 24 26 26 27 28 28 27 28 27 27 28 27 27 27 28 28 29 29 28 27 27 25 22 23 24 23 23 25 23 23 26 28 29 27 24 24 23 24 27 27 26 26 28 29 30 31 31 30 29 28 29 29 27 27 27 26 25 24 23 22
1 2 2 3 2 1 2 2 5 4 1 2 3 2 7 8 2 4 4 5 4 5 6 6 6 6 7 7 7 7 7 12 18 20 21 23 24 23 24 25 26 28 29 29 29 29 28 29 29 28 28 29 29 29 29 28 26 25 25 25 23 23 23 23 25 23 21 23 27 30 28 25 25 23 23 27 28 27 26 27 29 30 32 32 31 30 30 31 31 29 28 28 28 27 25 24 22
2 2 3 3 3 3 2 1 0 3 1 3 4 3 5 4 2 5 3 5 5 4 5 7 7 7 7 6 7 7 7 9 13 17 21 24 25 25 25 25 26 28 29 29 29 30 30 29 30 30 29 30 30 29 28 28 27 24 22 24 26 25 24 24 26 24 20 20 25 30 30 27 25 23 23 25 27 26 26 27 29 31 32 33 32 31 32 33 33 31 29 28 28 28 27 26 24
3 3 3 2 3 3 2 1 1 2 1 3 5 6 6 8 6 3 4 6 7 6 7 7 6 7 7 6 7 7 8 8 9 15 22 25 26 27 26 26 26 27 28 28 29 30 30 29 30 30 29 29 29 28 27 26 25 23 22 24 27 27 25 24 26 28 24 19 22 28 29 28 26 24 24 25 27 27 26 27 30 31 33 33 33 32 33 34 34 33 31 29 28 29 29 28 26
2 4 4 3 3 4 2 1 2 4 1 3 5 6 8 10 12 10 8 7 8 8 8 8 7 8 7 7 7 7 8 9 11 17 24 27 27 27 27 26 26 27 28 27 27 29 29 29 29 29 28 27 27 26 25 24 22 22 24 26 27 26 26 25 27 31 30 24 21 24 27 26 25 25 25 26 28 28 27 26 28 31 33 34 34 34 35 36 34 33 32 30 28 28 29 29 28
2 1 1 2 2 3 1 3 1 2 2 4 6 8 9 10 11 11 9 8 8 8 8 7 8 8 8 8 8 9 9 9 12 19 24 27 29 28 28 27 28 28 28 27 27 27 29 29 28 28 28 27 26 25 24 23 23 24 25 26 28 28 27 26 27 29 32 32 27 24 26 26 25 25 27 29 30 29 27 25 26 30 33 35 36 37 37 37 35 33 32 31 30 28 27 28 28
4 3 2 3 2 2 2 4 0 2 1 5 7 8 11 10 10 10 8 8 8 8 8 8 8 8 8 9 10 11 11 9 11 17 22 26 28 28 28 28 28 27 27 28 28 29 30 30 30 29 29 28 27 28 27 27 28 28 26 27 29 30 28 27 27 28 29 32 33 28 25 26 26 25 28 31 32 31 28 25 25 29 33 36 37 39 39 38 36 34 32 31 31 30 29 28 28
3 2 3 3 2 1 3 3 1 2 2 4 6 8 11 10 8 9 8 9 10 9 9 10 10 10 9 9 11 12 10 6 8 12 16 22 25 26 27 27 28 29 29 30 30 31 30 30 30 30 29 29 29 30 30 30 31 30 29 28 28 29 30 30 30 30 27 27 33 32 27 27 27 26 28 31 33 31 29 26 26 30 34 36 36 37 38 37 36 35 34 30 29 30 31 30 31
2 0 1 2 2 1 3 3 0 1 1 4 6 7 12 12 9 10 10 10 12 12 11 11 10 10 9 9 11 11 9 7 7 8 11 18 21 23 24 25 28 29 28 29 30 29 29 29 30 29 30 30 30 31 31 31 31 31 28 25 25 24 27 31 32 31 28 25 28 30 28 28 28 28 28 30 32 32 30 28 28 31 34 36 35 35 35 36 36 35 35 33 29 27 27 30 32
1 2 1 2 2 1 0 2 1 3 3 4 6 6 10 13 10 10 13 14 14 12 10 10 9 9 10 10 10 9 9 8 8 8 9 14 18 21 23 24 25 25 24 26 27 27 29 30 30 29 30 31 31 30 30 30 29 28 25 20 20 21 23 28 30 30 29 27 26 27 27 27 28 29 29 28 29 30 29 28 29 31 33 36 36 36 36 36 36 36 35 33 32 29 26 29 30
4 5 4 4 3 1 2 2 2 4 2 2 6 6 7 8 8 8 7 9 11 9 8 9 9 9 9 9 10 8 8 8 8 8 9 11 15 19 23 23 24 24 24 26 27 28 29 29 29 29 29 30 30 30 29 28 26 25 25 21 19 21 21 25 28 29 30 29 29 28 28 28 27 28 28 28 29 29 29 28 29 32 34 36 37 37 38 38 38 38 37 35 34 32 29 30 28
4 5 4 4 4 2 4 4 4 3 2 1 3 4 5 5 6 8 6 3 6 6 7 9 10 9 8 9 9 8 7 7 7 8 8 10 14 18 21 22 23 24 25 26 27 28 28 28 28 27 28 29 30 30 28 28 27 27 29 27 25 24 23 26 30 31 31 31 30 29 28 29 28 28 28 29 29 29 30 30 31 34 35 36 36 37 38 38 39 38 38 36 34 33 30 32 31
3 3 2 2 2 4 4 3 3 1 3 3 2 0 6 6 8 11 10 9 10 7 7 10 9 9 9 8 8 7 7 7 6 7 6 9 13 15 17 20 22 23 24 24 25 27 27 27 28 28 28 29 29 30 29 28 29 29 31 30 28 26 25 26 28 30 31 31 30 28 28 29 29 30 30 30 30 30 31 31 33 35 36 36 36 37 37 38 39 39 38 36 32 32 30 33 34
2 3 3 1 4 5 3 3 1 2 3 3 4 3 5 7 8 11 11 12 12 9 9 10 9 10 9 8 7 7 7 6 6 7 7 7 12 15 16 20 22 22 22 23 25 27 27 26 27 28 28 28 29 29 29 29 30 29 29 28 26 25 24 23 24 26 28 29 28 26 27 28 30 31 30 30 31 32 32 32 34 35 35 35 36 37 37 37 39 38 37 34 31 32 30 32 35
2 3 1 2 5 4 2 2 1 2 4 3 4 4 3 7 6 7 9 10 10 9 9 10 11 12 8 6 7 6 5 5 5 6 6 5 10 15 16 18 20 21 21 23 25 26 26 25 25 27 27 27 27 28 28 30 30 29 28 28 26 24 23 22 22 23 25 25 26 26 27 29 30 31 31 31 32 33 33 33 34 35 35 36 36 36 36 36 37 37 36 33 30 30 30 31 35
3 4 2 5 5 3 3 2 1 3 3 4 6 6 3 8 5 5 6 6 8 8 8 9 9 7 5 6 7 6 6 5 4 4 4 4 7 12 13 15 17 19 20 21 23 24 25 25 25 26 26 25 25 27 29 29 29 28 28 28 27 25 23 22 21 22 23 24 25 26 27 29 30 31 31 31 32 32 32 33 34 35 35 36 36 35 35 35 35 36 36 34 31 30 29 30 33
4 4 4 5 3 4 3 1 4 3 4 4 7 10 5 5 4 4 4 5 7 6 5 5 2 4 6 7 7 6 5 4 4 4 5 6 6 9 11 14 16 17 18 20 22 23 24 25 25 25 26 25 24 26 29 29 29 28 27 28 28 26 25 24 23 24 25 25 27 28 28 28 29 30 31 31 33 33 33 33 34 34 34 35 35 35 34 35 35 35 35 33 31 29 29 29 29
3 3 4 4 2 4 3 2 4 1 6 2 2 8 8 5 4 3 3 1 4 3 3 3 5 7 6 6 6 6 6 6 6 5 5 5 4 6 10 13 16 18 19 21 22 23 24 25 25 25 25 25 24 25 27 28 28 28 28 27 28 27 26 26 26 26 27 28 28 28 28 28 28 30 31 32 34 34 33 33 33 32 32 32 33 33 32 34 35 34 34 32 30 29 28 27 26
1 3 5 4 0 1 1 1 1 3 6 3 4 1 5 10 8 1 2 3 2 3 4 2 6 5 5 6 7 6 5 6 6 6 6 5 5 7 11 14 16 19 21 22 22 23 24 24 24 25 25 24 24 25 26 27 28 28 28 28 28 28 26 26 27 27 28 29 28 29 29 29 29 30 33 34 35 35 34 35 34 32 31 31 32 32 31 32 34 34 34 32 30 29 28 28 25
4 5 6 5 4 2 3 3 3 4 4 3 4 2 3 8 7 6 7 6 4 4 6 3 4 4 3 3 4 6 6 6 6 6 6 6 7 9 13 15 16 18 20 21 22 22 23 23 24 24 24 24 24 25 25 26 27 27 28 29 28 28 27 27 27 27 28 29 29 29 29 29 31 32 34 35 35 34 35 36 35 34 33 31 32 33 32 32 32 33 33 32 31 30 29 29 26
7 5 5 5 5 4 4 3 3 4 1 3 3 0 3 4 4 3 3 3 2 4 6 5 2 3 2 3 2 4 7 7 6 7 7 8 10 13 15 16 17 18 20 21 22 22 23 23 24 24 25 25 25 24 24 25 26 26 28 29 29 28 28 28 28 28 28 29 29 29 29 31 33 34 35 35 35 35 36 36 35 34 33 32 31 32 32 31 31 32 32 33 33 31 31 30 28
5 3 3 5 4 3 2 2 3 2 1 2 2 4 5 4 8 10 6 8 9 7 7 6 7 4 1 3 7 7 6 6 6 6 7 8 10 14 16 17 18 19 20 22 22 23 24 23 24 25 25 26 26 26 25 24 24 25 27 29 29 28 27 27 28 27 28 28 28 28 30 32 33 35 35 35 35 36 37 37 35 33 33 33 32 32 32 32 31 31 33 34 34 33 32 30 28
3 3 4 4 1 2 2 1 1 4 2 5 3 5 6 4 11 12 8 11 11 9 8 7 7 4 1 6 8 8 7 5 7 7 8 8 9 13 15 17 19 19 20 22 23 24 24 25 25 26 25 26 27 27 26 24 24 24 26 28 29 28 28 28 28 28 28 27 27 28 29 30 32 33 34 34 35 36 36 36 35 33 32 33 33 33 33 32 32 33 34 35 35 34 33 31 29
4 4 4 1 4 1 2 1 2 1 5 5 3 8 7 3 8 5 1 4 6 5 7 8 9 7 6 8 8 9 8 5 7 7 6 6 7 10 14 16 17 19 20 21 22 23 24 25 26 27 27 28 28 28 27 26 25 24 25 28 29 30 29 29 29 29 28 28 28 29 29 29 29 30 31 32 34 34 34 33 32 32 32 33 32 33 33 33 33 33 33 34 35 35 33 31 29
4 2 2 2 1 2 2 3 2 3 5 4 4 8 6 6 11 7 6 6 5 6 7 8 8 8 7 8 8 8 6 4 4 4 4 5 7 10 13 15 17 18 19 20 21 23 24 25 26 27 28 29 29 29 28 28 27 26 26 28 30 31 31 31 30 29 29 30 30 29 28 28 28 29 31 31 32 33 32 32 31 32 32 33 33 32 32 33 33 33 33 33 34 34 33 31 28
2 2 3 1 2 3 4 3 3 3 4 5 5 6 6 9 9 7 8 8 7 9 8 7 8 9 8 7 7 6 5 4 3 5 6 5 7 10 13 15 17 18 19 20 21 23 25 26 26 26 27 27 28 29 30 30 30 29 28 28 30 32 32 32 31 31 31 32 32 30 28 28 28 30 32 32 32 33 33 33 32 32 32 32 33 32 32 33 33 32 32 33 33 33 32 31 29
3 1 2 2 1 2 1 2 2 4 4 4 4 6 8 8 5 5 6 4 5 5 3 4 5 6 5 4 4 5 6 5 5 6 6 4 5 8 11 13 15 16 18 20 22 24 25 26 27 26 26 26 27 28 29 30 31 30 30 30 31 32 33 33 32 33 33 33 32 32 30 28 29 31 32 33 33 33 34 34 33 33 33 33 34 33 33 33 32 31 32 32 33 33 32 31 29
9 7 7 8 5 4 2 4 4 3 2 3 4 5 11 8 3 3 3 2 3 3 6 4 3 3 3 2 3 6 6 6 6 6 5 4 4 6 9 10 12 14 17 19 21 23 24 26 26 25 26 27 28 28 29 29 29 30 31 30 31 32 33 33 33 34 34 34 33 33 31 30 31 32 33 33 33 33 33 34 34 34 34 34 34 34 33 33 32 31 32 32 33 33 33 32 31
Wind_Direction
300 298 303 293 281 294 272 225 293 246 203 96 102 108 81 73 116 133 120 129 101 58 43 59 51 38 40 12 41 73 49 28 48 27 100 145 136 135 135 130 132 132 139 145 147 144 138 136 135 147 151 146 141 139 139 135 130 121 115 112 109 105 100 97 93 90 88 86 81 76 76 72 68 67 75 82 81 80 81 82 84 88 89 91 93 91 91 90 87 84 79 75 77 80 79 77 80
287 284 290 283 268 273 272 184 261 256 172 90 79 86 113 130 127 101 95 93 83 90 70 59 64 67 48 346 327 83 58 50 75 79 108 128 120 126 138 135 136 137 142 146 146 146 144 141 142 150 152 149 146 145 143 139 131 121 116 112 109 105 101 99 95 93 91 90 84 78 76 73 70 70 78 85 83 81 82 84 86 89 90 92 94 90 89 88 85 80 76 75 78 81 80 80 86
281 260 264 264 254 235 281 214 230 271 137 102 77 106 149 131 90 78 76 85 93 107 93 86 89 70 319 328 348 42 80 75 91 93 117 138 135 136 142 141 142 140 141 143 144 149 150 146 146 151 152 152 148 147 145 139 130 122 118 116 113 109 106 103 98 96 94 93 87 80 79 76 74 75 82 87 85 84 84 86 89 91 92 91 89 87 86 86 83 79 77 78 80 81 80 83 90
280 244 285 271 252 206 269 231 238 313 50 101 100 155 154 103 92 84 80 89 102 127 121 126 107 5 339 43 357 41 99 76 99 112 122 145 153 150 147 147 145 141 143 143 147 155 155 151 149 151 154 152 149 148 144 138 130 125 125 123 121 114 110 105 100 98 96 94 89 84 82 79 77 79 85 90 88 85 87 88 91 94 98 98 96 96 93 89 87 86 86 85 84 83 81 86 92
306 188 270 293 303 226 278 274 286 26 26 40 106 150 119 100 103 100 97 95 94 89 87 108 89 360 45 55 339 52 99 72 100 110 104 114 137 146 150 151 148 146 146 146 154 162 160 157 153 152 157 155 152 150 146 141 134 133 133 129 125 119 115 109 105 103 100 97 91 87 83 80 79 80 85 91 92 90 90 91 93 91 91 93 94 97 95 92 93 95 92 89 87 85 86 90 94
333 257 233 253 269 330 325 277 12 81 2 356 100 121 95 105 113 111 108 99 88 67 39 80 79 85 101 62 51 57 47 118 106 98 111 120 131 142 153 152 150 150 150 154 163 167 163 161 155 152 159 161 156 155 151 145 142 140 140 137 132 127 122 115 113 110 106 102 95 91 85 83 81 82 86 92 96 95 93 93 94 92 89 87 87 90 91 92 94 94 91 90 89 88 90 94 95
317 293 202 231 266 294 259 266 70 87 338 358 83 109 96 107 116 123 128 117 105 96 14 45 66 36 104 111 81 62 42 105 115 104 127 135 134 140 154 152 152 156 152 157 166 170 167 166 158 154 160 165 162 157 155 150 147 144 146 147 142 138 131 124 120 118 114 109 102 97 91 87 84 85 89 94 98 99 98 96 96 97 97 94 91 92 92 93 92 90 90 90 89 89 93 97 97
300 291 162 278 279 206 257 327 62 71 355 15 47 76 103 118 130 139 143 138 135 132 134 109 98 45 118 141 82 93 67 92 116 122 133 141 143 143 152 153 154 159 155 159 166 167 170 170 162 159 161 166 167 161 159 156 152 149 152 156 152 147 139 133 128 125 121 116 110 104 98 92 89 88 90 95 100 101 101 100 99 99 99 96 96 96 95 94 93 92 91 90 90 91 96 99 99
221 232 345 314 274 239 264 84 88 90 111 91 62 60 101 128 145 140 130 122 130 132 134 137 110 84 157 104 87 122 102 108 120 124 135 144 147 149 155 157 160 162 160 166 170 167 168 172 167 164 164 166 170 167 165 160 158 154 154 161 159 153 147 142 136 131 128 124 119 111 103 97 94 93 93 96 100 104 104 103 101 101 100 98 97 98 99 98 98 97 94 93 91 96 102 103 100
197 203 321 318 276 237 233 111 102 103 108 108 114 112 109 136 153 142 133 121 134 126 98 92 97 112 208 114 108 132 134 136 128 123 133 140 143 152 156 157 166 165 165 170 169 168 169 172 170 167 167 167 169 171 170 165 164 159 153 159 158 156 155 150 143 137 134 130 127 119 108 101 97 97 98 99 101 105 107 106 106 106 105 104 102 101 101 101 100 99 97 95 94 102 107 105 102
209 202 159 311 269 235 221 109 107 111 111 103 116 127 127 145 146 143 131 116 129 117 104 112 115 185 218 107 87 123 135 141 136 132 138 141 140 148 152 159 168 163 170 174 166 169 175 175 171 169 171 171 172 172 172 172 172 164 154 155 156 157 159 158 151 142 140 137 133 126 116 107 103 103 103 104 105 106 108 109 108 110 111 110 107 105 105 103 102 101 99 96 99 106 108 104 101
227 218 147 268 269 274 18 89 110 111 125 140 131 133 151 149 148 156 129 119 136 126 135 167 120 141 188 106 100 136 138 144 143 143 147 145 143 150 158 175 170 156 168 172 167 172 179 178 173 174 176 176 176 175 174 175 177 170 161 156 155 157 158 162 157 150 147 144 137 132 125 116 112 111 110 110 109 109 110 110 110 112 114 112 110 110 109 105 103 103 99 99 105 108 105 102 101
232 241 161 231 271 14 25 46 100 119 154 168 144 144 156 157 173 164 143 138 143 144 147 149 108 48 112 87 112 143 146 147 145 146 150 146 151 155 153 181 174 155 165 168 168 166 176 183 180 180 182 182 182 180 179 179 180 175 171 164 159 159 158 162 161 158 155 150 145 139 133 126 121 119 118 116 114 113 112 111 112 113 113 112 111 112 112 107 105 102 99 105 111 111 107 105 104
283 279 195 225 274 360 40 66 119 163 164 129 123 145 159 168 188 145 148 149 117 142 139 90 93 76 89 108 133 170 145 141 146 146 144 146 158 154 144 182 176 151 168 172 171 165 169 184 186 189 188 189 189 187 186 185 186 182 180 175 168 166 162 162 162 164 162 158 156 149 141 135 131 126 125 123 119 117 116 115 114 113 113 112 111 112 114 113 111 105 104 113 116 113 111 109 106
318 322 313 280 302 344 52 105 156 277 105 115 129 153 149 107 181 74 78 128 85 160 107 46 63 87 63 102 156 158 139 140 148 145 141 149 158 158 155 182 175 153 166 174 183 179 174 178 185 197 195 195 195 193 194 192 193 190 188 185 180 176 170 166 165 168 169 167 165 158 148 142 139 133 130 128 125 123 120 120 118 117 115 114 114 114 115 116 116 113 113 120 120 117 116 112 106
10 346 332 303 294 222 177 144 70 14 116 141 153 154 140 78 360 88 3 81 114 185 79 61 75 93 57 62 113 124 136 144 149 145 141 144 150 167 171 177 179 172 172 174 189 194 188 180 180 197 201 201 200 198 200 201 201 197 195 191 189 188 178 172 172 175 175 174 171 164 155 150 147 141 139 137 133 129 126 125 123 122 120 119 117 116 115 115 116 114 117 122 121 120 119 114 107
86 360 299 266 245 188 175 162 134 143 126 140 164 164 148 139 278 117 237 94 120 138 124 117 99 79 86 109 123 125 139 146 146 146 142 144 148 167 175 177 183 186 186 184 188 194 198 190 181 188 195 201 202 201 203 205 206 204 202 197 195 196 188 181 179 180 180 180 177 170 161 157 155 151 149 146 141 135 133 133 131 129 126 123 121 119 118 116 115 115 118 120 121 124 123 116 109
250 156 218 239 234 214 173 132 110 139 141 156 173 183 168 147 166 143 143 174 134 153 148 135 99 83 101 122 132 135 147 149 150 153 150 155 159 166 177 185 188 190 194 194 193 193 201 199 191 187 189 194 198 202 202 203 208 207 206 205 202 201 197 192 186 184 184 184 181 173 167 164 162 160 158 153 149 145 142 140 138 135 131 128 125 123 123 121 119 118 119 120 122 123 121 117 111
246 177 222 240 237 350 16 60 58 54 126 154 169 201 198 148 156 143 163 183 178 189 182 169 141 106 114 130 139 144 152 156 162 166 163 167 172 174 179 188 192 194 197 198 197 198 202 202 201 199 197 196 195 199 200 202 209 207 207 208 208 205 203 199 193 190 187 188 185 177 171 166 165 169 167 162 157 152 148 147 144 140 137 134 131 128 127 125 123 122 121 122 120 115 110 108 109
248 119 219 255 66 43 27 50 61 23 27 141 151 206 216 131 137 145 202 197 181 195 197 184 181 165 153 150 151 153 158 164 173 177 176 177 181 183 182 188 195 198 200 201 201 203 205 201 202 205 207 208 205 202 200 205 212 211 208 208 209 208 207 203 197 195 191 192 187 180 180 171 169 175 174 168 164 158 153 153 151 147 143 140 136 133 129 127 125 123 120 119 118 115 111 108 108
70 86 187 326 353 37 38 43 48 19 352 83 118 115 223 122 115 155 192 212 208 207 202 196 199 186 168 161 159 161 165 168 178 186 187 186 188 192 191 193 197 198 200 201 202 205 206 202 199 201 206 213 215 212 206 207 212 211 209 208 208 209 211 206 200 199 196 194 188 184 188 181 176 178 178 173 168 164 159 159 159 155 150 145 142 137 134 131 127 123 121 122 125 128 125 119 116
183 129 84 20 356 34 49 48 31 353 330 54 109 128 198 102 104 189 199 222 213 182 149 137 149 170 160 158 158 162 170 171 180 190 194 195 194 197 197 196 198 197 197 200 200 203 204 198 198 201 202 210 217 214 208 206 207 205 205 208 208 208 213 210 206 205 200 195 192 189 192 187 182 181 181 177 173 171 166 164 163 161 156 150 147 143 138 133 128 127 132 136 137 139 135 130 126
277 120 76 36 19 57 42 51 19 336 344 62 105 288 44 93 208 209 210 230 197 118 98 88 60 95 140 149 153 163 176 177 184 192 196 198 197 200 199 195 195 195 197 200 199 200 200 194 198 203 198 204 212 206 202 207 207 206 207 210 209 208 211 214 212 211 207 198 196 197 195 189 185 185 183 178 179 177 171 169 167 165 162 155 152 147 140 135 135 139 145 147 145 144 140 135 132
230 180 90 43 38 74 50 59 30 350 16 24 354 311 287 188 240 274 218 229 223 145 110 110 99 106 132 144 158 173 181 184 192 197 198 200 200 201 201 197 195 194 196 198 196 199 199 193 196 201 198 202 204 196 197 208 210 209 210 212 212 210 212 217 214 211 211 205 203 204 200 193 188 185 182 180 184 183 176 175 173 173 169 162 157 149 144 151 156 152 153 154 146 140 136 133 133
242 162 109 100 69 88 82 91 101 29 31 1 350 282 259 170 91 333 253 229 231 200 127 125 123 121 141 155 167 178 182 189 195 199 202 206 206 203 202 202 199 193 193 195 193 199 202 198 197 197 197 199 198 194 196 205 211 211 211 212 213 212 213 217 215 211 212 212 209 206 202 197 191 187 186 184 187 186 182 180 181 181 176 169 162 154 161 171 168 158 154 154 146 140 137 134 134
255 112 118 133 109 99 113 123 118 112 194 22 306 254 239 104 77 272 250 235 227 207 149 141 138 141 164 170 177 180 182 191 192 196 203 206 207 205 202 203 203 197 195 195 193 197 203 201 198 195 195 195 196 198 197 200 205 209 212 214 213 211 213 217 217 213 213 215 211 208 207 202 196 194 193 190 189 190 187 185 187 186 179 174 167 165 179 182 173 164 156 153 149 145 142 139 135
14 110 108 114 123 124 193 153 127 166 134 128 271 274 253 122 121 256 252 246 213 191 163 156 154 168 186 187 191 187 185 193 192 193 196 198 203 205 203 202 205 203 197 197 197 198 199 199 197 197 197 195 196 201 202 203 203 206 215 218 218 214 211 214 218 216 216 217 214 213 212 208 204 198 195 195 194 194 191 190 191 189 181 178 176 179 187 185 176 169 159 153 152 149 145 142 138
106 119 102 114 150 142 196 185 150 183 127 236 281 302 284 145 178 242 229 129 154 165 177 179 178 192 203 204 200 193 195 197 193 190 189 192 199 203 203 203 203 203 200 200 200 199 199 198 197 199 200 197 198 200 202 206 206 208 215 221 225 222 216 214 217 220 220 219 216 216 213 212 210 200 196 199 198 196 196 195 195 193 187 184 185 189 190 184 177 170 161 156 154 151 147 144 139
118 157 132 150 174 159 194 185 156 188 189 253 338 314 272 206 224 244 204 140 141 162 189 196 198 204 211 216 204 193 198 199 194 191 194 198 200 201 203 204 203 202 202 201 199 199 200 201 199 200 200 200 202 201 202 206 206 209 213 221 228 228 225 220 220 225 225 222 218 216 214 212 213 208 203 202 202 202 201 199 198 196 194 192 192 194 191 183 177 170 162 159 155 152 148 145 141
145 221 239 153 184 210 196 169 143 168 143 219 101 315 266 226 235 244 175 150 155 169 199 202 203 205 206 211 204 197 194 197 202 201 201 201 202 204 205 206 205 204 203 201 198 199 200 201 201 200 199 201 206 204 205 207 206 206 208 220 230 229 230 226 222 225 226 226 221 219 219 212 212 212 207 204 206 207 203 201 200 199 198 198 197 198 194 184 178 171 164 160 155 153 150 148 146
163 168 307 205 203 211 172 144 153 176 285 225 143 247 269 278 279 275 132 152 157 182 211 213 215 212 204 199 201 208 199 200 210 210 206 204 204 206 208 207 207 206 205 203 202 202 201 202 201 201 201 204 209 209 208 211 212 212 210 218 230 228 227 226 221 218 220 225 223 221 219 208 206 210 207 204 206 208 204 201 202 202 200 201 200 199 195 185 178 172 167 161 154 152 152 150 148
190 128 274 238 215 238 129 129 164 170 290 212 158 229 264 271 269 94 102 122 143 213 235 232 232 226 210 194 193 207 214 211 214 214 209 209 207 207 208 206 206 207 206 206 204 203 203 204 204 204 205 207 212 214 214 215 216 217 214 216 225 226 224 223 219 214 214 220 220 219 214 204 203 207 208 207 206 206 207 206 207 205 203 201 199 196 193 186 179 173 169 166 158 153 152 150 148
212 175 239 219 194 197 174 305 206 128 127 205 208 252 275 271 176 140 154 147 158 215 248 249 247 244 227 203 194 201 211 214 216 213 207 209 210 209 209 206 205 206 206 206 204 202 202 205 207 207 209 210 213 216 217 217 215 213 211 213 220 224 224 222 218 211 206 210 213 210 203 200 202 202 205 208 208 209 211 211 209 207 204 202 199 195 191 187 182 177 169 167 164 157 154 151 148
209 193 242 228 181 194 183 316 320 149 201 243 226 235 258 275 275 250 214 181 174 196 222 236 240 241 234 216 206 205 204 208 215 209 203 206 209 210 210 207 205 205 206 206 205 204 203 205 208 209 211 212 213 216 217 218 216 211 210 212 214 218 222 223 222 214 205 202 207 207 202 200 202 204 207 207 209 213 214 213 209 206 204 201 199 195 189 184 182 180 171 166 165 161 156 153 151
187 183 222 223 209 240 232 125 180 180 202 264 240 240 249 261 273 273 252 211 195 206 213 220 231 236 239 233 225 218 208 209 214 208 204 206 207 207 208 206 204 204 204 203 204 205 203 205 209 209 210 211 211 215 217 216 211 205 208 211 211 213 217 219 223 221 215 208 204 211 213 211 211 213 212 209 209 213 214 213 208 204 202 200 196 190 185 181 178 176 171 165 161 160 160 158 155
30 127 196 245 247 255 172 112 177 190 180 240 240 250 254 253 261 268 265 240 218 221 219 217 225 231 238 239 239 236 226 223 218 209 205 205 205 205 203 202 202 203 202 200 201 203 201 203 207 207 207 208 207 209 211 207 199 199 205 209 210 212 214 216 221 224 222 216 207 207 215 221 223 219 216 214 212 214 215 211 206 203 202 199 195 189 186 184 181 178 173 165 158 155 158 159 158
11 9 2 315 330 351 94 108 351 356 334 244 240 253 262 259 259 262 266 266 257 245 239 237 229 226 230 231 239 242 238 240 228 214 207 203 203 202 199 199 198 198 200 199 199 202 201 201 204 206 204 204 205 205 205 200 195 197 202 207 211 212 213 215 217 219 222 220 214 211 211 219 226 221 218 216 214 215 213 208 206 204 200 198 196 194 190 187 184 181 173 166 161 157 155 158 161
25 4 346 321 271 224 68 87 207 37 45 266 273 278 273 266 261 265 262 263 261 248 240 242 236 234 233 228 238 243 242 239 224 214 202 194 194 194 194 194 193 194 197 199 200 202 201 201 204 206 203 202 206 207 206 203 201 201 202 207 211 213 214 213 213 216 220 219 216 215 214 216 221 221 218 216 213 213 211 210 210 205 200 197 193 190 188 185 182 178 171 165 165 162 160 163 166
60 114 327 313 259 151 58 44 10 86 127 268 293 298 283 276 265 260 256 252 253 242 231 236 234 236 237 228 235 241 239 227 210 202 190 184 186 187 189 191 195 198 199 199 201 201 200 200 204 206 203 202 205 209 209 207 206 205 205 209 213 215 216 213 212 215 219 219 214 214 216 216 218 219 217 212 210 212 212 213 210 204 200 197 191 186 185 184 180 178 175 170 166 162 162 167 172
177 193 208 251 238 130 48 319 291 221 212 277 307 301 281 280 271 255 244 238 248 250 240 241 234 229 232 231 236 235 226 218 209 200 187 183 182 183 188 193 196 198 199 199 200 200 200 201 203 204 204 202 203 208 211 209 208 206 204 207 212 214 215 212 212 215 218 220 217 216 217 216 217 216 213 209 210 211 212 210 206 202 199 197 194 191 187 185 183 182 180 176 170 163 162 169 174
221 203 201 226 243 100 99 40 305 245 225 327 325 311 273 271 268 265 252 228 239 252 248 248 244 235 235 241 246 242 226 212 204 202 193 183 183 188 193 195 196 198 200 201 201 202 203 204 204 204 204 202 202 207 209 207 204 200 196 198 201 203 204 204 206 211 214 216 217 215 214 214 214 213 212 212 213 212 209 206 204 201 198 196 195 194 191 190 190 188 185 184 181 175 170 171 173
242 214 203 236 278 29 74 39 357 338 327 301 359 334 287 296 291 282 302 279 241 243 236 240 246 244 238 243 246 243 242 229 213 209 192 179 186 191 194 196 196 199 203 204 204 205 206 206 205 205 206 205 204 207 208 204 201 196 193 193 193 192 193 198 203 208 209 211 215 215 214 214 215 216 215 214 213 211 208 205 203 199 196 195 195 195 193 191 190 190 189 187 187 187 181 173 174
261 260 330 328 12 64 72 30 27 16 290 249 127 321 277 300 291 277 285 280 261 246 237 241 246 244 232 228 230 230 235 231 220 217 193 174 182 186 190 195 198 202 206 206 206 207 207 207 207 206 208 208 206 207 207 205 201 199 197 197 198 197 197 202 206 209 211 213 215 215 215 216 216 216 215 212 209 208 206 205 202 198 195 196 196 195 193 193 193 193 192 191 189 190 187 179 177
240 258 311 352 89 92 102 70 139 225 307 271 176 173 269 279 263 255 258 264 265 254 246 249 248 247 237 215 210 212 208 195 185 201 201 179 178 182 188 195 200 205 206 205 206 206 206 207 207 206 208 210 208 207 208 207 204 202 201 202 205 207 208 210 210 211 213 215 215 216 216 215 213 211 211 209 207 204 203 204 202 197 196 197 197 197 197 197 196 194 193 193 193 192 193 190 184
229 238 276 93 97 97 120 100 246 292 1 299 203 150 277 270 240 233 239 249 263 252 236 237 240 245 236 187 174 171 153 144 142 169 193 180 173 182 189 195 201 206 205 205 206 206 205 206 207 206 208 211 210 208 207 208 207 206 204 205 209 212 212 214 213 211 213 214 215 216 215 212 209 208 208 208 206 202 201 203 201 198 198 200 199 201 202 200 198 195 192 194 195 195 197 196 190
207 198 98 78 86 68 70 85 31 16 339 256 194 157 254 277 242 196 212 232 248 243 225 228 236 231 192 139 134 130 115 112 104 114 127 123 153 172 182 190 196 201 204 206 206 205 204 205 206 205 207 210 210 208 208 208 208 207 207 207 209 211 210 211 212 210 211 212 212 214 213 211 210 209 208 206 205 203 202 202 202 200 201 202 203 204 204 202 199 195 193 195 196 195 197 197 195
157 158 92 73 66 44 40 39 71 49 286 250 181 176 187 292 271 165 181 215 212 216 227 227 188 120 127 126 133 147 151 149 132 113 103 100 131 158 169 180 187 194 199 201 202 202 202 203 205 204 206 209 210 209 209 209 209 209 209 209 210 210 207 206 206 207 208 209 209 211 213 213 214 214 212 207 205 205 203 203 202 203 203 203 205 205 204 203 200 196 195 196 196 197 197 197 199
112 132 113 87 23 26 24 356 59 130 257 288 205 188 179 244 271 98 92 172 174 199 239 191 143 127 132 148 164 170 172 165 152 146 133 127 145 168 175 180 183 188 192 195 198 199 200 202 203 203 205 207 209 210 210 211 212 212 212 212 211 210 209 207 206 206 208 209 208 209 212 216 217 216 213 209 206 205 203 202 201 202 203 203 204 204 204 203 201 199 198 197 196 198 198 195 198
53 146 129 116 360 16 355 263 146 218 241 287 326 271 206 240 254 285 322 308 318 283 274 155 135 151 167 174 185 184 176 167 160 163 162 164 184 193 194 190 187 188 191 194 196 197 198 201 203 202 204 205 208 211 211 212 215 215 213 212 212 212 212 211 209 209 211 211 209 209 211 214 215 214 212 210 209 206 204 203 202 202 203 203 203 202 203 204 201 201 200 198 197 198 198 196 196
189 170 145 151 168 190 234 220 213 234 239 291 332 16 254 261 271 262 248 257 297 301 277 253 142 178 225 192 175 182 187 181 175 172 172 186 201 201 200 198 193 193 194 195 196 197 198 199 202 203 205 206 208 212 213 214 217 218 216 214 213 213 213 214 212 212 213 212 211 213 217 219 218 217 214 213 213 210 208 207 205 205 204 202 202 202 204 205 204 203 201 199 197 196 196 195 195
198 189 161 177 173 182 209 188 214 231 216 305 317 307 210 229 269 254 198 216 298 338 307 293 263 244 299 347 292 229 213 197 182 176 184 202 203 197 198 198 198 197 197 198 198 199 199 200 202 204 205 205 207 211 213 214 217 219 219 217 215 214 214 215 214 214 215 215 215 218 222 223 222 221 218 215 214 212 211 209 207 207 206 204 203 204 205 207 206 203 200 198 195 193 193 193 192
217 199 184 217 201 176 192 172 180 153 43 289 230 243 227 218 276 276 261 261 261 268 277 281 284 286 17 320 289 273 241 195 179 187 202 218 206 195 195 195 200 201 199 199 199 199 201 201 203 205 207 206 207 210 213 215 217 219 220 218 216 215 215 215 215 215 218 220 222 224 225 223 222 221 218 216 214 212 211 211 209 209 209 209 208 207 207 207 205 201 197 195 193 193 194 192 192
201 173 202 220 132 126 191 269 71 99 267 258 184 258 283 313 293 275 243 255 263 252 241 244 262 259 235 267 267 272 259 191 182 201 209 221 207 195 197 198 200 201 200 200 200 202 204 204 204 205 207 207 208 211 214 216 217 218 219 218 216 215 215 216 216 216 219 222 227 228 225 223 221 218 215 215 215 213 211 210 209 210 212 213 213 212 210 207 205 202 198 197 195 195 195 195 194
135 170 207 138 43 23 146 215 352 127 246 259 189 248 278 305 282 290 29 297 294 258 221 223 241 228 221 246 250 261 260 204 195 209 206 210 199 194 199 201 204 203 203 204 204 206 208 208 208 206 207 208 209 210 213 215 217 217 216 215 216 216 216 217 217 217 220 222 225 225 221 220 219 217 216 216 215 213 211 210 210 213 214 214 214 212 210 206 203 201 200 200 199 198 197 197 198
118 167 236 107 125 246 145 173 234 208 238 266 247 253 262 238 248 282 325 312 303 271 234 216 226 215 215 240 246 251 248 211 215 234 224 201 188 194 197 199 204 205 207 209 208 209 210 210 211 210 212 213 212 211 212 215 218 218 216 215 215 216 217 217 216 216 219 220 221 220 220 221 223 222 221 219 218 216 214 212 212 214 215 214 213 211 208 204 202 201 199 199 199 199 198 197 197
48 3 337 94 160 187 174 189 194 182 218 251 270 275 256 238 244 269 273 262 260 261 250 227 214 204 213 228 224 215 204 198 226 254 255 222 187 198 203 204 206 204 206 209 209 210 210 211 212 213 215 216 215 213 211 212 215 216 216 215 215 216 216 217 216 216 218 219 220 221 223 225 226 224 222 220 220 219 216 213 213 215 215 213 211 208 206 204 202 201 200 199 198 198 199 196 194
186 233 229 196 147 114 167 258 195 175 193 228 257 269 261 250 233 238 245 253 270 264 238 221 193 176 204 216 183 171 172 195 214 232 247 232 195 204 210 214 213 208 208 209 208 210 210 211 212 212 214 215 216 216 214 214 215 216 216 215 215 216 216 216 217 217 219 220 221 223 226 227 226 223 220 219 220 219 217 216 215 216 215 213 211 207 205 203 201 200 200 200 198 197 197 194 191
189 195 197 198 187 147 189 250 224 180 177 218 224 258 271 263 171 207 264 21 353 49 79 62 55 51 327 310 166 161 163 189 204 204 201 187 192 207 207 210 210 209 210 209 210 211 211 212 212 212 213 215 215 216 217 216 215 217 218 217 216 216 216 217 217 217 219 221 222 223 225 226 223 220 219 220 221 220 219 217 216 216 214 213 211 208 204 203 201 199 199 198 197 195 193 190 187